GFSFLT2_con_3kmhel_246.txt.gz
Helicity
215 180 158 164 155 175 194 184 198 192 178 148 140 131 121 113 98 92 103 99 88 67 36 23 -13 -36 -15 33 47 78 61 40
244 140 134 150 148 160 203 199 201 202 187 172 151 154 134 124 104 100 104 95 81 74 46 28 -8 -44 19 56 92 63 -26 -14
241 106 115 131 143 144 160 203 205 204 190 195 170 140 121 121 90 110 112 96 76 75 59 34 10 -12 44 72 158 218 126 134
239 156 113 136 133 165 144 161 188 176 174 166 130 108 122 107 132 124 112 96 81 80 61 32 16 41 52 52 128 179 32 42
164 210 157 135 164 200 181 191 184 168 164 185 127 111 125 114 170 159 137 101 81 84 60 24 -29 17 46 28 85 67 25 -22
222 165 142 136 173 160 167 204 209 203 208 213 185 168 133 145 188 162 150 109 90 82 47 12 -40 -20 34 38 63 34 68 50
324 277 142 170 164 162 174 192 196 211 254 258 223 213 157 187 174 176 158 120 103 86 54 24 -13 -4 32 55 61 72 76 42
123 331 287 220 227 221 213 200 164 185 266 295 240 234 175 221 180 175 177 138 120 103 86 53 38 44 54 54 69 112 95 24
16 253 347 284 215 259 213 192 191 159 249 281 264 245 207 220 219 189 193 156 138 116 103 78 95 90 73 79 78 96 113 34
3 104 321 373 289 285 202 173 199 148 227 292 254 244 248 241 263 227 222 183 177 133 124 115 138 122 123 102 98 100 112 88
45 32 263 404 341 292 226 146 191 152 226 310 230 247 240 265 272 247 257 224 217 130 147 169 193 159 145 133 116 103 124 101
85 90 109 357 378 321 248 185 174 190 233 285 241 250 277 257 290 263 276 261 240 165 199 208 206 212 165 147 120 113 128 89
11 62 143 315 383 319 226 174 187 218 218 227 259 238 272 292 313 284 310 276 249 221 289 271 204 219 230 189 157 136 134 108
9 102 84 250 312 349 301 246 231 224 268 234 248 258 249 301 321 307 307 282 246 257 310 303 230 221 291 333 294 242 185 131
102 26 22 144 236 322 254 274 235 225 250 257 251 251 237 284 325 318 317 318 323 276 321 318 274 282 328 378 381 261 248 186
139 126 -70 66 203 276 250 199 222 259 261 233 274 243 252 236 276 323 336 392 328 349 330 332 411 382 343 303 301 268 275 278
30 187 55 149 126 212 301 181 186 243 244 246 229 248 240 236 269 325 356 392 363 356 403 403 374 390 419 304 304 365 192 291
-147 115 250 1 -39 155 196 250 224 187 281 289 279 209 228 209 243 287 378 390 397 470 467 505 480 398 354 351 388 433 357 311
-87 22 161 142 103 126 92 277 250 233 246 349 343 207 244 250 229 261 379 383 462 512 527 526 521 456 401 391 389 330 313 350
435 64 126 216 202 129 30 93 277 292 232 291 377 431 237 278 278 307 339 412 454 474 593 633 595 532 489 426 437 348 273 352

GFSFLT2_con_3kmhel_249.txt.gz
Helicity
263 165 187 221 169 123 136 165 167 172 153 130 108 110 105 92 82 96 108 96 72 45 16 8 12 33 33 44 53 70 73 37
321 281 217 181 183 160 128 154 186 180 180 146 132 105 116 101 95 106 103 90 71 49 17 9 19 14 21 46 57 60 65 50
272 302 265 196 202 156 169 124 180 195 187 182 159 106 107 110 98 103 97 85 73 56 23 9 21 -5 -13 39 94 72 40 62
233 256 236 225 205 205 170 162 159 199 201 205 184 139 111 130 121 107 96 82 78 60 32 9 19 16 42 62 100 104 92 53
253 280 264 231 252 276 242 190 196 199 201 236 222 191 145 159 152 135 120 98 91 70 53 16 -10 15 56 113 127 113 95 62
294 324 294 251 269 298 263 244 202 225 222 252 296 256 203 196 167 161 147 121 112 82 57 13 -1 7 65 108 129 117 96 57
207 288 333 333 308 286 290 255 248 237 257 260 315 303 280 260 191 173 181 147 118 97 67 23 3 -4 94 71 138 90 84 45
-16 167 255 304 381 331 298 286 279 220 279 285 305 347 333 321 233 206 206 172 134 106 74 37 2 39 82 71 128 91 112 68
32 71 202 314 320 332 343 309 306 276 267 302 312 367 369 371 271 235 229 206 153 132 104 76 47 65 53 63 146 125 110 97
66 110 179 299 300 314 320 365 343 281 264 307 289 356 391 377 313 244 249 252 196 156 125 102 53 74 65 66 154 133 83 87
206 118 152 252 326 377 407 348 402 323 307 292 276 343 387 401 353 276 269 280 224 183 162 143 110 119 106 109 137 192 124 93
-8 27 157 169 281 350 350 348 384 379 325 294 285 335 373 394 360 314 289 271 255 222 184 195 166 199 151 143 146 160 152 107
-6 55 90 135 79 250 302 239 311 326 303 270 298 294 364 407 396 377 289 258 251 235 236 241 242 253 273 183 173 134 128 134
-5 47 55 82 134 71 294 260 197 361 333 312 292 315 329 391 398 407 323 282 260 264 249 275 289 276 258 254 238 217 148 99
81 84 49 -38 117 17 71 287 273 218 311 370 363 326 340 378 385 400 351 352 331 274 277 276 315 264 304 318 360 242 239 139
-41 62 150 -17 -34 74 -98 190 298 210 215 352 361 307 378 387 438 389 347 373 306 314 315 322 366 336 358 304 330 298 351 281
53 39 123 295 -91 -13 -140 -210 105 219 266 273 364 365 359 367 422 405 360 393 321 321 330 318 404 399 379 344 325 308 309 331
126 132 46 209 282 5 22 44 -15 34 98 238 303 308 324 341 349 407 368 375 339 331 339 393 400 382 372 342 342 391 333 348
237 233 191 238 317 107 117 28 -10 102 80 158 231 276 478 268 326 353 394 343 336 382 364 373 407 410 409 412 367 393 372 354
352 394 343 319 316 210 277 -6 -15 -38 65 57 300 139 276 257 259 214 302 305 344 358 395 375 468 456 429 426 439 379 401 333

GFSFLT2_con_3kmhel_252.txt.gz
Helicity
180 158 175 193 175 166 128 156 162 155 179 148 116 90 89 73 74 78 76 61 37 33 57 64 72 48 53 39 68 23 37 20
182 172 192 190 187 166 173 112 183 172 156 161 137 107 93 81 88 88 79 54 34 41 55 50 72 54 40 77 71 62 42 45
223 227 213 223 194 194 212 109 140 223 165 155 161 126 101 86 95 93 81 51 33 41 52 32 58 52 61 57 71 43 30 64
135 190 204 236 235 226 217 220 165 174 198 167 185 154 132 111 99 102 92 62 38 38 49 22 44 52 70 82 75 61 49 54
202 210 247 266 274 270 278 270 255 196 203 202 201 194 153 141 115 105 108 92 54 41 58 18 1 61 99 70 64 113 91 85
211 268 280 233 231 271 302 318 353 280 214 215 245 258 201 170 133 119 131 124 93 49 48 21 -16 39 121 80 75 78 107 85
88 296 256 267 273 282 263 350 399 346 261 246 279 290 283 240 168 153 156 141 120 71 30 47 7 11 151 107 92 91 98 98
530 233 105 303 269 275 290 316 296 415 332 276 278 329 329 307 228 191 183 162 150 105 50 57 45 28 136 134 117 113 105 94
326 396 371 134 207 283 327 320 343 272 397 339 294 341 361 328 319 240 204 195 188 152 110 83 74 61 69 178 150 119 100 103
255 320 438 394 257 104 348 369 362 335 283 376 340 352 372 378 350 285 247 257 219 189 145 103 75 89 92 167 178 133 111 120
133 80 162 358 405 202 98 284 419 394 383 326 342 377 400 411 392 345 286 299 246 212 174 144 129 121 88 175 181 139 130 120
-15 43 -3 90 188 191 118 96 217 412 356 328 344 379 408 432 396 391 353 333 276 245 200 179 168 147 147 188 186 160 134 110
-74 -67 -19 -2 90 147 171 145 85 201 348 316 331 386 369 418 404 432 401 358 292 254 254 214 224 183 279 263 222 168 120 90
-32 63 34 -108 -97 122 107 108 32 84 139 254 359 348 359 421 407 424 422 407 315 270 263 304 267 244 272 302 283 222 126 86
-176 -51 128 123 -14 -164 50 -1 -18 -34 112 169 305 342 379 368 406 431 423 444 386 307 280 263 294 243 269 420 379 230 210 138
44 -36 -8 86 180 66 -90 -50 -138 -167 -121 190 229 220 307 348 399 456 428 470 396 343 316 320 361 348 332 346 348 335 347 226
67 152 123 45 237 209 219 -13 -113 -246 -178 -216 359 154 217 350 407 472 449 481 440 362 332 314 379 414 399 349 387 324 302 287
113 215 248 167 224 343 247 305 23 14 -207 -205 -38 23 142 301 357 414 493 479 471 426 359 319 374 391 378 329 389 483 326 322
61 220 355 367 279 364 368 360 235 150 70 38 -158 -86 149 147 338 381 493 486 470 463 421 337 366 410 391 353 347 334 351 314
58 158 390 431 412 461 463 434 275 171 171 6 22 27 -161 60 228 410 477 475 464 474 449 402 370 401 339 381 383 324 358 400

GFSFLT2_con_3kmhel_258.txt.gz
Helicity
135 -35 -14 30 101 126 148 153 182 184 190 188 182 168 125 125 98 98 101 105 124 154 152 120 103 66 58 50 48 34 30 15
216 223 167 -24 17 63 140 133 146 172 183 185 191 185 129 125 108 100 107 105 114 137 143 121 97 50 33 30 47 41 36 33
238 243 195 194 12 15 63 124 137 153 177 187 203 186 164 112 112 108 103 105 105 110 127 109 87 54 42 51 79 34 48 57
263 247 222 168 97 39 85 42 114 172 185 214 226 206 193 145 115 120 106 98 101 95 106 111 109 71 54 72 77 62 60 65
374 295 218 172 117 141 27 84 138 107 189 244 246 246 224 175 156 145 136 111 104 95 98 136 94 99 77 43 57 87 94 97
391 377 302 315 198 129 177 40 104 137 125 211 298 301 258 244 203 178 162 147 136 122 140 136 100 86 75 57 58 90 107 111
356 418 347 305 330 265 171 217 106 134 164 176 220 295 281 276 245 248 196 167 157 142 146 147 115 80 62 70 47 75 96 108
206 257 356 367 392 342 264 194 244 102 152 182 208 217 287 316 265 270 276 211 169 162 166 169 143 103 67 47 47 68 96 103
116 163 218 290 319 313 292 252 224 263 115 136 205 258 275 243 329 272 301 292 221 189 201 206 195 165 76 54 69 64 79 99
135 89 141 206 191 226 232 250 257 230 284 157 168 217 309 337 280 285 283 314 291 228 210 209 187 184 124 69 89 81 72 80
223 179 136 168 196 116 134 206 224 211 210 306 140 172 270 351 348 304 257 346 316 299 239 213 228 213 196 135 102 117 90 92
51 117 187 193 110 211 123 122 164 215 218 223 374 125 209 327 351 349 276 323 343 328 277 232 241 279 262 213 139 150 151 101
45 -11 -11 54 143 137 209 182 180 158 230 252 272 379 55 254 330 398 387 317 339 346 371 314 298 328 443 333 214 156 143 123
11 -24 -27 -80 -90 34 88 188 137 176 135 216 255 278 328 124 240 338 401 379 319 354 372 428 348 337 356 367 273 179 117 114
-108 -139 -95 -92 -60 -98 -83 68 146 141 150 174 222 285 321 351 169 290 351 384 339 345 374 399 469 335 377 470 436 227 208 139
-122 -168 -267 -195 -108 -102 -83 -114 104 208 159 129 255 259 233 136 128 130 512 273 354 326 379 391 451 456 424 380 396 324 302 204
-74 -109 -166 -267 -243 -191 -123 -24 -25 46 172 195 184 254 376 176 64 51 44 350 162 368 346 410 411 460 512 419 520 425 296 357
-33 -99 -105 -149 -256 -231 -165 -60 68 112 144 180 159 198 314 277 175 98 45 224 -9 177 302 432 428 393 474 446 466 478 416 356
-46 -20 -89 -113 -157 -232 -248 -143 -86 57 161 136 215 210 273 229 292 183 30 68 22 10 120 439 424 411 424 460 415 403 409 384
-72 -24 -12 -43 -116 -167 -227 -216 -118 -95 42 92 110 173 225 219 187 214 110 170 239 81 21 121 400 473 381 427 421 410 422 370